Destin - Fort Walton Beach Weather Center

Moon Phase Calendar



Online Cameras

 


      

Current Conditions in Destin
5/19/2022 7:05:31 AM

78°F
Feels Like 80
Clear
Humidity
83%
Pressure
29.97"
Wind
5 mph (W)
Dew Point
73°F
UV Index
0/10 (Low)
Visibility
6 mi

Hourly Forecast

Date & Time Thu, May 19
7:00 AM
Thu, May 19
8:00 AM
Thu, May 19
9:00 AM
Thu, May 19
10:00 AM
Thu, May 19
11:00 AM
Thu, May 19
12:00 PM
Thu, May 19
1:00 PM
Thu, May 19
2:00 PM
Thu, May 19
3:00 PM
Thu, May 19
4:00 PM
Thu, May 19
5:00 PM
Thu, May 19
6:00 PM
Thu, May 19
7:00 PM
Thu, May 19
8:00 PM
Thu, May 19
9:00 PM
Thu, May 19
10:00 PM
Thu, May 19
11:00 PM
Fri, May 20
12:00 AM
Fri, May 20
1:00 AM
Fri, May 20
2:00 AM
Fri, May 20
3:00 AM
Fri, May 20
4:00 AM
Fri, May 20
5:00 AM
Fri, May 20
6:00 AM
Fri, May 20
7:00 AM
Fri, May 20
8:00 AM
Fri, May 20
9:00 AM
Fri, May 20
10:00 AM
Fri, May 20
11:00 AM
Fri, May 20
12:00 PM
Fri, May 20
1:00 PM
Fri, May 20
2:00 PM
Fri, May 20
3:00 PM
Fri, May 20
4:00 PM
Fri, May 20
5:00 PM
Fri, May 20
6:00 PM
Fri, May 20
7:00 PM
Fri, May 20
8:00 PM
Fri, May 20
9:00 PM
Fri, May 20
10:00 PM
Fri, May 20
11:00 PM
Sat, May 21
12:00 AM
Sat, May 21
1:00 AM
Sat, May 21
2:00 AM
Sat, May 21
3:00 AM
Sat, May 21
4:00 AM
Sat, May 21
5:00 AM
Sat, May 21
6:00 AM
Condition
Clear

Clear

Clear

Clouds

Clouds

Clouds

Clouds

Clouds

Clouds

Clouds

Clouds

Clouds

Clouds

Clouds

Clouds

Clouds

Clouds

Clouds

Clouds

Clouds

Clouds

Clouds

Clouds

Clouds

Clouds

Clouds

Clouds

Clouds

Rain

Rain

Rain

Rain

Clear

Clear

Clear

Clear

Clear

Clear

Clear

Clear

Clear

Rain

Clear

Rain

Rain

Rain

Rain

Clear
Temperature 78°F79°F79°F81°F83°F84°F84°F83°F83°F82°F81°F80°F79°F78°F77°F77°F76°F76°F76°F76°F76°F76°F76°F76°F77°F79°F81°F81°F82°F82°F83°F83°F83°F82°F82°F81°F79°F78°F77°F77°F78°F78°F78°F78°F78°F78°F78°F78°F
Feels Like 80°F80°F79°F85°F87°F88°F88°F87°F86°F85°F85°F84°F79°F79°F78°F78°F78°F78°F77°F77°F77°F77°F77°F77°F79°F79°F84°F85°F86°F87°F87°F87°F87°F87°F86°F84°F79°F79°F79°F78°F79°F80°F80°F80°F79°F79°F79°F79°F
Cloudiness 0%3%7%15%35%55%63%100%100%100%100%100%100%100%100%100%99%99%97%87%89%81%86%88%90%80%72%59%47%40%36%13%10%8%6%5%4%0%0%0%0%0%0%0%6%4%4%9%
Visibility 6 mi6 mi6 mi6 mi6 mi6 mi6 mi6 mi6 mi6 mi6 mi6 mi6 mi6 mi6 mi6 mi6 mi6 mi6 mi6 mi6 mi6 mi6 mi6 mi6 mi6 mi6 mi6 mi6 mi6 mi6 mi6 mi6 mi6 mi6 mi6 mi6 mi6 mi6 mi6 mi6 mi6 mi6 mi6 mi6 mi6 mi6 mi6 mi
Precipitation 0%0%0%0%0%0%0%0%0%0%0%0%0%0%0%0%0%0%0%0%0%0%0%0%0%0%3%7%39%23%31%47%47%46%47%47%47%6%0%5%5%29%9%34%62%56%52%46%
Humidity 83%81%77%71%65%62%61%61%63%67%70%74%78%82%85%86%87%88%88%88%89%89%87%86%80%72%70%70%70%70%67%67%66%67%69%73%79%83%86%87%86%84%84%84%85%84%86%87%
Dew Point 73°F72°F72°F71°F70°F69°F68°F68°F68°F70°F70°F71°F72°F72°F72°F72°F72°F72°F72°F72°F72°F72°F71°F71°F71°F70°F70°F70°F71°F71°F70°F70°F70°F70°F70°F71°F72°F72°F72°F73°F73°F73°F73°F73°F73°F73°F73°F73°F
Pressure 29.97"29.97"29.97"29.97"29.97"29.94"29.94"29.94"29.94"29.91"29.91"29.91"29.91"29.91"29.91"29.91"29.91"29.91"29.88"29.88"29.88"29.88"29.91"29.91"29.94"29.97"29.97"29.97"29.97"29.97"29.97"29.97"29.97"29.94"29.94"29.97"29.97"30"30"30"30"30"30"30"30"30.03"30.03"30.06"
Wind Speed 7.6 mph7.8 mph7.1 mph6.8 mph8.2 mph10 mph11.5 mph12.2 mph12.4 mph12.6 mph11.9 mph11.8 mph9.9 mph8.2 mph7.7 mph7.6 mph7.7 mph8.4 mph8 mph8.2 mph9 mph8.8 mph8.8 mph8.8 mph8.8 mph10.5 mph11.2 mph11.3 mph12.4 mph11.6 mph11.8 mph12.2 mph11.3 mph10 mph9.5 mph10.7 mph9.8 mph8.3 mph7.4 mph9.5 mph12.4 mph14.6 mph14.5 mph15 mph13.9 mph12.6 mph11.9 mph11.9 mph
Wind
Direction
262°
W
266°
W
263°
W
242°
WSW
218°
SW
206°
SSW
201°
SSW
202°
SSW
203°
SSW
206°
SSW
207°
SSW
209°
SSW
213°
SSW
216°
SW
215°
SW
210°
SSW
207°
SSW
205°
SSW
199°
SSW
193°
SSW
195°
SSW
193°
SSW
184°
S
179°
S
175°
S
172°
S
167°
SSE
162°
SSE
165°
SSE
169°
S
169°
S
172°
S
174°
S
175°
S
167°
SSE
166°
SSE
165°
SSE
164°
SSE
170°
S
145°
SE
143°
SE
152°
SSE
162°
SSE
163°
SSE
160°
SSE
165°
SSE
172°
S
172°
S

Daily Forecast

Date High Low Precip. Humidity
Today
May 19

Clouds
84 °F
76 °F
0%
62%
Friday
May 20

Rain
83 °F
76 °F
47%
70%
Saturday
May 21

Rain
84 °F
72 °F
93%
63%
Sunday
May 22

Rain
85 °F
73 °F
96%
55%
Monday
May 23

Rain
79 °F
76 °F
100%
75%
Tuesday
May 24

Rain
84 °F
76 °F
47%
61%
Wednesday
May 25

Rain
87 °F
74 °F
80%
54%
Thursday
May 26

Rain
85 °F
76 °F
51%
68%
Friday
May 27

Rain
84 °F
77 °F
40%
65%
Saturday
May 28

Rain
84 °F
77 °F
50%
65%
Sunday
May 29

Clear
85 °F
77 °F
7%
64%
Monday
May 30

Rain
85 °F
78 °F
32%
66%
Tuesday
May 31

Clouds
86 °F
77 °F
0%
56%
Wednesday
Jun 1

Clouds
88 °F
76 °F
0%
51%
Thursday
Jun 2

Clouds
88 °F
78 °F
2%
53%
Friday
Jun 3

Clouds
87 °F
77 °F
33%
55%

Temperature 8-14 Day Outlook



Precipitation 8-14 Day Outlook




Quick Links
Destin - Fort Walton Beach News
Destin - Fort Walton Beach Photos
Destin - Fort Walton Beach Videos




About Us
Contact Us
Site Map
Search Site
Advertise With Us
   
Destin.USGulf.info
THE DESTIN - FORT WALTON BEACH WEBSITE

Copyright 2022, Coastal Town
Privacy    |    Legal